N1CP KJAC-KEGE

Flight info

Callsign N1CP
Flight time 0h 58m
Altitude 41000
Route ALPIN5 BPI HYPPE AAVON1
Aircraft CL60/M-SBDE1E2E3FGHIJ1J3J4J5J7M3P2RWXYZ/LB1V1D1

Departure

Time 2026-04-28 18:26
Airport Jackson Hole Airport (KJAC)

Arrival

Time 2026-04-28 19:24
Airport Eagle County Regional Airport (KEGE)
Time Latitude Longitude Altitude Speed Heading
2026-04-28 17:55 43.59810 -110.73955 6420 ft 0 kts 19°
2026-04-28 18:21 43.59822 -110.73952 6421 ft 9 kts
2026-04-28 18:21 43.59896 -110.74010 6421 ft 10 kts 327°
2026-04-28 18:21 43.59992 -110.73979 6422 ft 18 kts 19°
2026-04-28 18:21 43.60120 -110.73917 6424 ft 21 kts 18°
2026-04-28 18:22 43.60266 -110.73846 6427 ft 23 kts 19°
2026-04-28 18:22 43.60422 -110.73769 6429 ft 25 kts 19°
2026-04-28 18:22 43.60578 -110.73693 6431 ft 20 kts 20°
2026-04-28 18:22 43.60716 -110.73625 6434 ft 22 kts 19°
2026-04-28 18:23 43.60867 -110.73553 6437 ft 23 kts 19°
2026-04-28 18:23 43.61029 -110.73473 6440 ft 25 kts 19°
2026-04-28 18:23 43.61202 -110.73389 6444 ft 26 kts 19°
2026-04-28 18:23 43.61380 -110.73302 6449 ft 27 kts 19°
2026-04-28 18:24 43.61506 -110.73278 6451 ft 12 kts 310°
2026-04-28 18:24 43.61519 -110.73315 6451 ft 14 kts 290°
2026-04-28 18:24 43.61512 -110.73398 6451 ft 0 kts 195°
2026-04-28 18:25 43.61306 -110.73498 6446 ft 78 kts 199°
2026-04-28 18:25 43.60522 -110.73879 6442 ft 154 kts 198°
2026-04-28 18:25 43.59432 -110.74410 6967 ft 177 kts 199°
2026-04-28 18:26 43.57093 -110.75904 8722 ft 193 kts 208°
2026-04-28 18:26 43.55856 -110.76740 9522 ft 211 kts 208°
2026-04-28 18:26 43.54483 -110.77663 10335 ft 232 kts 208°
2026-04-28 18:26 43.52961 -110.78677 10976 ft 262 kts 208°
2026-04-28 18:27 43.51216 -110.79833 11468 ft 297 kts 207°
2026-04-28 18:27 43.49257 -110.81118 12089 ft 324 kts 207°
2026-04-28 18:27 43.47143 -110.82497 12833 ft 344 kts 207°
2026-04-28 18:27 43.44953 -110.83920 13681 ft 358 kts 207°
2026-04-28 18:28 43.42678 -110.85395 14688 ft 366 kts 207°
2026-04-28 18:28 43.40375 -110.86884 15669 ft 373 kts 207°
2026-04-28 18:28 43.38004 -110.88416 16621 ft 379 kts 207°
2026-04-28 18:28 43.35624 -110.89951 17514 ft 385 kts 207°
2026-04-28 18:29 43.33188 -110.91519 18365 ft 391 kts 207°
2026-04-28 18:29 43.30716 -110.93110 19194 ft 397 kts 207°
2026-04-28 18:29 43.28194 -110.94675 20011 ft 403 kts 204°
2026-04-28 18:29 43.25412 -110.95629 20792 ft 413 kts 189°
2026-04-28 18:30 43.22527 -110.95576 21516 ft 422 kts 173°
2026-04-28 18:30 43.21578 -110.95324 21743 ft 425 kts 168°
2026-04-28 18:30 43.17209 -110.92233 22851 ft 436 kts 139°
2026-04-28 18:30 43.15037 -110.89294 23441 ft 442 kts 134°
2026-04-28 18:31 43.12861 -110.86249 24094 ft 447 kts 135°
2026-04-28 18:31 43.10680 -110.83212 24783 ft 450 kts 135°
2026-04-28 18:31 43.08477 -110.80149 25400 ft 454 kts 135°
2026-04-28 18:31 43.06252 -110.77059 25950 ft 459 kts 135°
2026-04-28 18:32 43.03997 -110.73933 26496 ft 463 kts 135°
2026-04-28 18:32 43.01741 -110.70808 27011 ft 466 kts 135°
2026-04-28 18:32 42.99472 -110.67670 27493 ft 470 kts 135°
2026-04-28 18:32 42.97166 -110.64485 27942 ft 474 kts 135°
2026-04-28 18:33 42.94839 -110.61275 28350 ft 478 kts 135°
2026-04-28 18:33 42.92477 -110.58021 28741 ft 482 kts 135°
2026-04-28 18:33 42.90107 -110.54760 29124 ft 486 kts 135°
2026-04-28 18:33 42.87674 -110.51417 29579 ft 487 kts 136°
2026-04-28 18:34 42.85274 -110.48124 30062 ft 487 kts 136°
2026-04-28 18:34 42.82848 -110.44798 30547 ft 486 kts 136°
2026-04-28 18:34 42.80427 -110.41482 31025 ft 485 kts 136°
2026-04-28 18:34 42.77994 -110.38155 31504 ft 484 kts 136°
2026-04-28 18:35 42.75562 -110.34832 31947 ft 484 kts 137°
2026-04-28 18:35 42.73177 -110.31577 32368 ft 483 kts 137°
2026-04-28 18:35 42.70747 -110.28265 32785 ft 482 kts 137°
2026-04-28 18:35 42.68361 -110.25017 33153 ft 482 kts 137°
2026-04-28 18:36 42.65964 -110.21758 33522 ft 481 kts 137°
2026-04-28 18:36 42.63526 -110.18449 33873 ft 481 kts 137°
2026-04-28 18:36 42.61065 -110.15351 34228 ft 478 kts 143°
2026-04-28 18:36 42.58341 -110.12637 34513 ft 474 kts 150°
2026-04-28 18:37 42.55463 -110.10436 34784 ft 470 kts 158°
2026-04-28 18:37 42.52447 -110.08738 35074 ft 465 kts 165°
2026-04-28 18:37 42.49318 -110.07418 35334 ft 462 kts 167°
2026-04-28 18:37 42.46234 -110.06173 35563 ft 462 kts 167°
2026-04-28 18:38 42.43114 -110.04913 35785 ft 462 kts 167°
2026-04-28 18:38 42.40028 -110.03667 36040 ft 462 kts 167°
2026-04-28 18:38 42.36953 -110.02428 36303 ft 462 kts 167°
2026-04-28 18:38 42.33858 -110.01181 36577 ft 461 kts 167°
2026-04-28 18:39 42.30768 -109.99938 36836 ft 461 kts 167°
2026-04-28 18:39 42.27671 -109.98695 37088 ft 461 kts 167°
2026-04-28 18:39 42.24619 -109.97470 37339 ft 460 kts 167°
2026-04-28 18:39 42.21549 -109.96240 37582 ft 460 kts 167°
2026-04-28 18:40 42.18487 -109.95013 37787 ft 460 kts 167°
2026-04-28 18:40 42.15378 -109.93771 38008 ft 459 kts 167°
2026-04-28 18:40 42.12312 -109.92545 38215 ft 459 kts 167°
2026-04-28 18:40 42.09231 -109.91316 38414 ft 459 kts 167°
2026-04-28 18:41 42.06162 -109.90093 38613 ft 459 kts 167°
2026-04-28 18:41 42.03099 -109.88873 38822 ft 458 kts 167°
2026-04-28 18:41 41.99995 -109.87639 39006 ft 458 kts 167°
2026-04-28 18:41 41.96927 -109.86420 39157 ft 458 kts 167°
2026-04-28 18:42 41.93846 -109.85197 39300 ft 458 kts 167°
2026-04-28 18:42 41.90812 -109.83994 39448 ft 458 kts 168°
2026-04-28 18:42 41.87705 -109.82764 39590 ft 458 kts 167°
2026-04-28 18:42 41.84608 -109.81538 39715 ft 458 kts 167°
2026-04-28 18:43 41.81593 -109.80347 39832 ft 459 kts 167°
2026-04-28 18:43 41.78483 -109.79118 39974 ft 458 kts 167°
2026-04-28 18:43 41.75424 -109.77911 40100 ft 457 kts 168°
2026-04-28 18:43 41.72372 -109.76709 40244 ft 457 kts 168°
2026-04-28 18:44 41.69327 -109.75510 40383 ft 456 kts 168°
2026-04-28 18:44 41.63234 -109.73115 40641 ft 455 kts 168°
2026-04-28 18:44 41.60163 -109.71909 40769 ft 454 kts 168°
2026-04-28 18:45 41.57126 -109.70718 40895 ft 453 kts 168°
2026-04-28 18:45 41.54101 -109.69533 41037 ft 452 kts 168°
2026-04-28 18:45 41.51089 -109.68354 41157 ft 452 kts 168°
2026-04-28 18:45 41.48058 -109.67169 41187 ft 453 kts 168°
2026-04-28 18:46 41.41960 -109.64790 41177 ft 457 kts 168°
2026-04-28 18:46 41.35836 -109.62405 41179 ft 459 kts 168°
2026-04-28 18:47 41.29721 -109.60027 41179 ft 459 kts 168°
2026-04-28 18:47 41.23586 -109.57645 41190 ft 459 kts 168°
2026-04-28 18:48 41.17459 -109.55272 41196 ft 458 kts 168°
2026-04-28 18:48 41.11326 -109.52901 41203 ft 458 kts 168°
2026-04-28 18:49 41.07249 -109.51327 41195 ft 459 kts 168°
2026-04-28 18:49 40.99105 -109.48191 41193 ft 459 kts 169°
2026-04-28 18:50 40.92965 -109.45830 41174 ft 456 kts 169°
2026-04-28 18:50 40.86891 -109.43499 41166 ft 453 kts 169°
2026-04-28 18:51 40.80823 -109.41176 41154 ft 452 kts 169°
2026-04-28 18:51 40.74784 -109.38869 41142 ft 451 kts 169°
2026-04-28 18:52 40.68721 -109.36556 41151 ft 451 kts 169°
2026-04-28 18:52 40.62709 -109.34268 41176 ft 450 kts 170°
2026-04-28 18:53 40.56674 -109.31975 41182 ft 450 kts 170°
2026-04-28 18:53 40.50653 -109.29692 41187 ft 450 kts 170°
2026-04-28 18:54 40.44606 -109.27235 41189 ft 454 kts 165°
2026-04-28 18:54 40.38936 -109.23357 41180 ft 464 kts 152°
2026-04-28 18:55 40.34744 -109.18832 41176 ft 473 kts 140°
2026-04-28 18:55 40.29965 -109.10891 41176 ft 480 kts 130°
2026-04-28 18:56 40.26123 -109.03799 41154 ft 477 kts 130°
2026-04-28 18:56 40.22298 -108.96758 40929 ft 474 kts 130°
2026-04-28 18:57 40.20387 -108.93246 40813 ft 472 kts 130°
2026-04-28 18:57 40.18476 -108.89740 40687 ft 471 kts 130°
2026-04-28 18:57 40.16598 -108.86298 40557 ft 471 kts 130°
2026-04-28 18:57 40.14700 -108.82825 40451 ft 470 kts 130°
2026-04-28 18:58 40.12795 -108.79343 40331 ft 471 kts 130°
2026-04-28 18:58 40.10887 -108.75860 40208 ft 472 kts 130°
2026-04-28 18:58 40.08960 -108.72347 40009 ft 475 kts 130°
2026-04-28 18:58 40.07046 -108.68860 39762 ft 476 kts 130°
2026-04-28 18:59 40.05091 -108.65302 39523 ft 475 kts 131°
2026-04-28 18:59 40.03194 -108.61854 39275 ft 475 kts 131°
2026-04-28 18:59 40.01268 -108.58355 39030 ft 475 kts 131°
2026-04-28 18:59 39.99330 -108.54842 38781 ft 476 kts 131°
2026-04-28 19:00 39.97392 -108.51331 38531 ft 477 kts 131°
2026-04-28 19:00 39.95441 -108.47800 38281 ft 478 kts 131°
2026-04-28 19:00 39.93494 -108.44283 37785 ft 482 kts 131°
2026-04-28 19:00 39.91516 -108.40710 37297 ft 481 kts 131°
2026-04-28 19:01 39.89584 -108.37225 36770 ft 482 kts 131°
2026-04-28 19:01 39.87598 -108.33645 36251 ft 482 kts 131°
2026-04-28 19:01 39.85748 -108.29997 35720 ft 489 kts 126°
2026-04-28 19:01 39.84150 -108.26071 35092 ft 498 kts 119°
2026-04-28 19:02 39.82845 -108.21857 34454 ft 505 kts 112°
2026-04-28 19:02 39.81892 -108.17454 33845 ft 508 kts 105°
2026-04-28 19:02 39.81316 -108.12954 33264 ft 508 kts 97°
2026-04-28 19:02 39.81109 -108.08324 32501 ft 511 kts 90°
2026-04-28 19:03 39.81300 -108.03696 31681 ft 512 kts 82°
2026-04-28 19:03 39.81895 -107.99189 31253 ft 505 kts 75°
2026-04-28 19:03 39.82838 -107.94841 30651 ft 504 kts 68°
2026-04-28 19:03 39.84117 -107.90620 30117 ft 504 kts 63°
2026-04-28 19:04 39.85518 -107.86423 29573 ft 504 kts 63°
2026-04-28 19:04 39.86902 -107.82266 29009 ft 506 kts 63°
2026-04-28 19:04 39.88296 -107.78070 28475 ft 506 kts 63°
2026-04-28 19:04 39.89698 -107.73845 27905 ft 506 kts 63°
2026-04-28 19:05 39.91096 -107.69624 27335 ft 505 kts 63°
2026-04-28 19:05 39.92473 -107.65462 26778 ft 503 kts 63°
2026-04-28 19:05 39.93845 -107.61305 26223 ft 498 kts 63°
2026-04-28 19:05 39.95197 -107.57202 25686 ft 494 kts 63°
2026-04-28 19:06 39.96544 -107.53113 25130 ft 490 kts 63°
2026-04-28 19:06 39.97446 -107.50371 24761 ft 487 kts 63°
2026-04-28 19:06 39.99207 -107.45006 24056 ft 482 kts 63°
2026-04-28 19:06 40.00518 -107.41007 23531 ft 478 kts 63°
2026-04-28 19:07 40.01811 -107.37054 22999 ft 474 kts 63°
2026-04-28 19:07 40.02856 -107.33031 22462 ft 472 kts 76°
2026-04-28 19:07 40.03363 -107.28840 21887 ft 461 kts 81°
2026-04-28 19:07 40.03799 -107.24772 21404 ft 444 kts 81°
2026-04-28 19:08 40.04221 -107.20863 20912 ft 429 kts 81°
2026-04-28 19:08 40.04631 -107.17057 20505 ft 419 kts 81°
2026-04-28 19:08 40.05033 -107.13335 20022 ft 413 kts 81°
2026-04-28 19:08 40.05424 -107.09697 19574 ft 401 kts 81°
2026-04-28 19:09 40.05808 -107.06111 18908 ft 396 kts 81°
2026-04-28 19:09 40.06177 -107.02648 18590 ft 377 kts 81°
2026-04-28 19:09 40.06533 -106.99300 18152 ft 365 kts 81°
2026-04-28 19:09 40.06874 -106.96086 17776 ft 352 kts 81°
2026-04-28 19:10 40.07201 -106.92992 17389 ft 342 kts 81°
2026-04-28 19:10 40.07524 -106.89940 17088 ft 335 kts 81°
2026-04-28 19:10 40.07840 -106.86946 16591 ft 334 kts 81°
2026-04-28 19:10 40.08150 -106.83999 16355 ft 324 kts 81°
2026-04-28 19:11 40.08351 -106.81052 15889 ft 326 kts 93°
2026-04-28 19:11 40.08094 -106.78180 15690 ft 311 kts 98°
2026-04-28 19:11 40.07815 -106.75477 15713 ft 294 kts 98°
2026-04-28 19:11 40.07546 -106.72832 15505 ft 294 kts 98°
2026-04-28 19:12 40.07278 -106.70207 15409 ft 289 kts 98°
2026-04-28 19:12 40.07009 -106.67574 15267 ft 290 kts 98°
2026-04-28 19:12 40.06744 -106.64986 15150 ft 287 kts 98°
2026-04-28 19:12 40.06272 -106.62539 14996 ft 275 kts 116°
2026-04-28 19:13 40.05180 -106.60543 14851 ft 264 kts 141°
2026-04-28 19:13 40.03675 -106.59279 14703 ft 256 kts 162°
2026-04-28 19:13 40.01972 -106.58781 14508 ft 246 kts 182°
2026-04-28 19:13 40.00299 -106.58933 14433 ft 238 kts 193°
2026-04-28 19:14 39.98653 -106.59211 14318 ft 241 kts 193°
2026-04-28 19:14 39.96996 -106.59481 14202 ft 239 kts 193°
2026-04-28 19:14 39.95335 -106.59751 14092 ft 239 kts 192°
2026-04-28 19:14 39.93692 -106.60018 13973 ft 233 kts 192°
2026-04-28 19:15 39.92128 -106.60268 13864 ft 220 kts 192°
2026-04-28 19:15 39.90618 -106.60512 13718 ft 216 kts 192°
2026-04-28 19:15 39.89124 -106.60755 13617 ft 215 kts 192°
2026-04-28 19:15 39.88641 -106.60834 13579 ft 215 kts 192°
2026-04-28 19:16 39.86156 -106.61239 13385 ft 214 kts 192°
2026-04-28 19:16 39.84672 -106.61481 13272 ft 215 kts 192°
2026-04-28 19:16 39.83184 -106.61723 13156 ft 214 kts 192°
2026-04-28 19:16 39.81717 -106.61961 13050 ft 214 kts 191°
2026-04-28 19:17 39.80265 -106.62198 12913 ft 214 kts 191°
2026-04-28 19:17 39.78780 -106.62437 12737 ft 214 kts 192°
2026-04-28 19:17 39.77306 -106.62676 12576 ft 212 kts 191°
2026-04-28 19:17 39.75838 -106.62914 12440 ft 213 kts 192°
2026-04-28 19:18 39.74359 -106.63155 12288 ft 212 kts 192°
2026-04-28 19:18 39.72895 -106.63392 12147 ft 212 kts 191°
2026-04-28 19:18 39.71426 -106.63630 11999 ft 212 kts 192°
2026-04-28 19:18 39.70000 -106.64058 11852 ft 206 kts 211°
2026-04-28 19:19 39.68941 -106.65258 11611 ft 202 kts 234°
2026-04-28 19:19 39.68076 -106.66732 11167 ft 206 kts 236°
2026-04-28 19:19 39.67231 -106.68156 10835 ft 195 kts 236°
2026-04-28 19:19 39.66644 -106.69683 10528 ft 191 kts 259°
2026-04-28 19:20 39.66452 -106.71397 10206 ft 190 kts 265°
2026-04-28 19:20 39.66291 -106.73021 9901 ft 174 kts 263°
2026-04-28 19:20 39.66125 -106.74572 9597 ft 173 kts 263°
2026-04-28 19:20 39.65960 -106.76118 9305 ft 172 kts 263°
2026-04-28 19:21 39.65798 -106.77611 9031 ft 160 kts 263°
2026-04-28 19:21 39.65649 -106.78989 8756 ft 152 kts 262°
2026-04-28 19:21 39.65503 -106.80341 8509 ft 148 kts 261°
2026-04-28 19:21 39.65362 -106.81641 8259 ft 143 kts 261°
2026-04-28 19:22 39.65224 -106.82910 8013 ft 140 kts 260°
2026-04-28 19:22 39.65181 -106.83325 7935 ft 142 kts 261°
2026-04-28 19:22 39.64969 -106.85438 7575 ft 143 kts 261°
2026-04-28 19:22 39.64812 -106.86730 7297 ft 145 kts 257°
2026-04-28 19:23 39.64671 -106.88010 7011 ft 142 kts 258°
2026-04-28 19:23 39.64536 -106.89233 6795 ft 134 kts 259°
2026-04-28 19:23 39.64404 -106.90434 6598 ft 133 kts 259°
2026-04-28 19:23 39.64286 -106.91509 6569 ft 103 kts 261°
2026-04-28 19:24 39.64215 -106.92158 6568 ft 37 kts 262°
2026-04-28 19:24 39.64142 -106.92278 6568 ft 15 kts 167°
2026-04-28 19:24 39.64104 -106.92172 6569 ft 18 kts 79°
2026-04-28 19:24 39.64124 -106.91980 6569 ft 23 kts 81°
2026-04-28 19:25 39.64148 -106.91760 6569 ft 26 kts 81°
2026-04-28 19:25 39.64175 -106.91518 6569 ft 25 kts 82°
2026-04-28 19:25 39.64193 -106.91358 6569 ft 17 kts 82°
2026-04-28 19:25 39.64212 -106.91181 6569 ft 22 kts 82°
2026-04-28 19:26 39.64231 -106.91009 6569 ft 12 kts 81°
2026-04-28 19:26 39.64222 -106.90934 6569 ft 10 kts 144°
2026-04-28 19:26 39.64162 -106.90925 6569 ft 4 kts 181°
2026-04-28 19:26 39.64135 -106.90926 6569 ft 2 kts 180°
2026-04-28 19:27 39.64125 -106.90895 6569 ft 5 kts 78°
2026-04-28 19:27 39.64135 -106.90851 6569 ft 0 kts 70°